Home > Weather > Brno > Past weeks

Flag for Czech Republic Past Weather in Brno, Czech Republic — Yesterday and Last 2 Weeks

Now
71 °F

Overcast.


Feels Like: 71 °F
Forecast: 58 / 79 °F
Wind: 5 mph from North

Location: Brno / Turany

Current Time: Jul 28, 2016 at 12:32:22 PM

Latest Report: Jul 28, 2016 at 11:00 AM


Visibility: 13 mi

Pressure: 30.02 "Hg

Humidity: 79%

Dew Point: 64 °F

Location of BrnoLocation

Past Weather in Brno — Graph

°F

Brno Temperature Yesterday

Maximum temperature yesterday: 85 °F (at 4:00 PM)
Minimum temperature yesterday: 65 °F (at 6:00 AM)
Average temperature yesterday: 73 °F

High & Low Weather Summary for the Past Weeks

 TemperatureHumidityPressure
High85 °F (Jul 26, 2:00 PM)99% (Jul 28, 12:00 AM)30.22 "Hg (Jul 28, 12:00 AM)
Low47 °F (Jul 15, 5:00 AM)42% (Jul 23, 5:00 PM)29.67 "Hg (Jul 14, 8:00 AM)
Average69 °F73%30.02 "Hg
* Reported Jul 13 11:00 AM — Jul 28 11:00 AM, Brno, Weather by CustomWeather, © 2016

Note: Actual official high and low records may vary slightly from our data, if they occured in-between our weather recording intervals... More about our weather records

Advertising

Brno Weather History for the Previous 24 Hours

Scroll right to see more
 ConditionsComfort  
Time TempWeatherWind HumidityBarometerVisibility
11:00 AM
Thu, Jul 28
71 °FOvercast.5 mph79%30.02 "Hg12 mi
10:00 AM69 °FOvercast.3 mph83%30.01 "Hg11 mi
9:00 AM69 °FOvercast.2 mph86%30.01 "Hg9 mi
8:00 AM67 °FOvercast.1 mph90%30.01 "Hg7 mi
7:00 AM67 °FOvercast.1 mph93%30.00 "Hg7 mi
6:00 AM67 °FOvercast.3 mph93%29.99 "Hg7 mi
5:00 AM66 °FOvercast.2 mph97%29.99 "Hg6 mi
4:00 AM66 °FLight rain. Overcast.2 mph97%29.98 "Hg4 mi
3:00 AM67 °FOvercast.2 mph99%29.98 "Hg3 mi
2:00 AM68 °FLight rain. Overcast.2 mph98%29.98 "Hg3 mi
1:00 AM67 °FLight rain. Overcast.2 mph98%29.98 "Hg4 mi
12:00 AM67 °FFog.2 mph99%29.96 "Hg4 mi
11:00 PM
Wed, Jul 27
67 °FFog.1 mph97%29.96 "Hg5 mi
10:00 PM68 °FLight rain. Overcast.1 mph96%29.98 "Hg12 mi
9:00 PM70 °FThundershowers. Overcast.1 mph85%29.98 "Hg7 mi
8:00 PM69 °FThundershowers. Overcast.2 mph89%29.96 "Hg3 mi
7:00 PM68 °FThunderstorms. Low clouds.3 mph90%29.94 "Hg9 mi
6:00 PM68 °FThundershowers. Partly sunny.3 mph93%29.94 "Hg3 mi
5:00 PM75 °FThundershowers. Partly sunny.6 mph64%29.93 "Hg3 mi
4:00 PM85 °FThunderstorms. Partly sunny.6 mph56%29.90 "Hg9 mi
3:00 PM83 °FPartly sunny.2 mph55%29.92 "Hg16 mi
2:00 PM83 °FPartly sunny.1 mph58%29.93 "Hg12 mi
1:00 PM82 °FPartly sunny.5 mph58%29.96 "Hg12 mi
12:00 PM81 °FScattered clouds.3 mph61%29.98 "Hg9 mi
Weather by CustomWeather, © 2016

See weather overviewHow to use our weather pages